Time,TemperatureF,DewpointF,PressureIn,WindDirection,WindDirectionDegrees,WindSpeedMPH,WindSpeedGustMPH,Humidity,HourlyPrecipIn,Conditions,Clouds,dailyrainin,SoftwareType,DateUTC
2013-01-20 00:30:00,39.2,21.2,30.36,East,97,0.0,8.3,48,-99.99,,,0.00,VWS V14.01,2013-01-20 05:30:00,
2013-01-20 01:00:00,39.7,21.7,30.36,SSE,151,0.0,6.7,48,-99.99,,,0.00,VWS V14.01,2013-01-20 06:00:00,
2013-01-20 01:30:00,39.7,20.7,30.36,SE,133,6.7,6.7,46,-99.99,,,0.00,VWS V14.01,2013-01-20 06:30:00,
2013-01-20 02:00:00,39.7,19.6,30.36,SE,141,3.1,7.8,44,-99.99,,,0.00,VWS V14.01,2013-01-20 07:00:00,
2013-01-20 02:30:00,39.4,19.8,30.36,SE,136,3.1,7.8,45,-99.99,,,0.00,VWS V14.01,2013-01-20 07:30:00,
2013-01-20 03:00:00,39.2,19.7,30.36,SE,138,3.6,7.8,45,-99.99,,,0.00,VWS V14.01,2013-01-20 08:00:00,
2013-01-20 03:30:00,38.7,19.7,30.36,SSE,147,0.0,6.3,46,-99.99,,,0.00,VWS V14.01,2013-01-20 08:30:00,
2013-01-20 04:00:00,38.5,20.0,30.36,SSE,150,2.7,6.3,47,-99.99,,,0.00,VWS V14.01,2013-01-20 09:00:00,
2013-01-20 04:30:00,38.3,20.8,30.36,SSE,166,4.5,5.8,49,-99.99,,,0.00,VWS V14.01,2013-01-20 09:30:00,
2013-01-20 05:00:00,38.3,20.8,30.33,SSE,163,2.7,6.3,49,-99.99,,,0.00,VWS V14.01,2013-01-20 10:00:00,
2013-01-20 05:30:00,38.1,21.6,30.33,SSE,160,0.0,5.8,51,-99.99,,,0.00,VWS V14.01,2013-01-20 10:30:00,
2013-01-20 06:00:00,37.8,21.7,30.33,SSE,155,3.1,4.9,52,-99.99,,,0.00,VWS V14.01,2013-01-20 11:00:00,
2013-01-20 06:30:00,37.8,22.2,30.33,South,173,0.0,5.8,53,-99.99,,,0.00,VWS V14.01,2013-01-20 11:30:00,
2013-01-20 07:00:00,37.6,22.5,30.33,South,175,0.0,4.5,54,-99.99,,,0.00,VWS V14.01,2013-01-20 12:00:00,
2013-01-20 07:30:00,37.4,22.7,30.33,South,176,0.0,4.0,55,-99.99,,,0.00,VWS V14.01,2013-01-20 12:30:00,
2013-01-20 08:00:00,36.9,22.6,30.36,South,185,0.0,3.6,56,-99.99,,,0.00,VWS V14.01,2013-01-20 13:00:00,
2013-01-20 08:30:00,36.3,23.8,30.36,South,184,0.0,0.0,60,-99.99,,,0.00,VWS V14.01,2013-01-20 13:30:00,
2013-01-20 09:00:00,36.9,25.5,30.36,South,171,0.0,5.4,63,-99.99,,,0.00,VWS V14.01,2013-01-20 14:00:00,
2013-01-20 09:30:00,37.9,26.9,30.36,South,178,0.0,3.6,64,-99.99,,,0.00,VWS V14.01,2013-01-20 14:30:00,
2013-01-20 10:00:00,39.7,27.8,30.36,SSW,208,3.1,5.8,62,-99.99,,,0.00,VWS V14.01,2013-01-20 15:00:00,
2013-01-20 10:30:00,41.0,27.0,30.36,SSW,200,0.0,6.9,57,-99.99,,,0.00,VWS V14.01,2013-01-20 15:30:00,
2013-01-20 11:00:00,42.4,26.5,30.36,WSW,250,0.0,8.3,53,-99.99,,,0.00,VWS V14.01,2013-01-20 16:00:00,
2013-01-20 11:30:00,44.1,27.1,30.36,South,183,2.7,6.9,51,-99.99,,,0.00,VWS V14.01,2013-01-20 16:30:00,
2013-01-20 12:00:00,45.7,26.6,30.36,SW,228,4.9,7.4,47,-99.99,,,0.00,VWS V14.01,2013-01-20 17:00:00,
2013-01-20 12:30:00,46.0,25.9,30.33,SW,236,0.0,9.2,45,-99.99,,,0.00,VWS V14.01,2013-01-20 17:30:00,
2013-01-20 13:00:00,46.4,26.8,30.33,NW,308,0.0,8.3,46,-99.99,,,0.00,VWS V14.01,2013-01-20 18:00:00,
2013-01-20 13:30:00,47.1,27.4,30.30,NW,315,3.1,10.1,46,-99.99,,,0.00,VWS V14.01,2013-01-20 18:30:00,
2013-01-20 14:00:00,47.5,25.0,30.30,East,94,0.0,7.4,41,-99.99,,,0.00,VWS V14.01,2013-01-20 19:00:00,
2013-01-20 14:30:00,48.2,26.2,30.30,West,260,0.0,6.3,42,-99.99,,,0.00,VWS V14.01,2013-01-20 19:30:00,
2013-01-20 15:00:00,50.2,24.9,30.27,WSW,257,3.6,9.2,37,-99.99,,,0.00,VWS V14.01,2013-01-20 20:00:00,
2013-01-20 15:30:00,51.3,25.2,30.27,West,280,4.9,9.6,36,-99.99,,,0.00,VWS V14.01,2013-01-20 20:30:00,
2013-01-20 16:00:00,51.1,23.7,30.30,SW,234,3.6,9.2,34,-99.99,,,0.00,VWS V14.01,2013-01-20 21:00:00,
2013-01-20 16:30:00,49.8,25.2,30.30,NNW,342,0.0,9.2,38,-99.99,,,0.00,VWS V14.01,2013-01-20 21:30:00,
2013-01-20 17:00:00,48.9,24.5,30.30,West,277,3.1,9.6,38,-99.99,,,0.00,VWS V14.01,2013-01-20 22:00:00,
2013-01-20 17:30:00,47.8,25.3,30.30,West,278,0.0,6.7,41,-99.99,,,0.00,VWS V14.01,2013-01-20 22:30:00,
2013-01-20 18:00:00,44.8,25.8,30.30,West,276,0.0,4.0,47,-99.99,,,0.00,VWS V14.01,2013-01-20 23:00:00,
2013-01-20 18:30:00,42.1,25.7,30.30,West,278,0.0,0.0,52,-99.99,,,0.00,VWS V14.01,2013-01-20 23:30:00,
2013-01-20 19:00:00,40.8,26.8,30.30,West,277,0.0,0.0,57,-99.99,,,0.00,VWS V14.01,2013-01-21 00:00:00,
2013-01-20 19:30:00,39.7,27.8,30.30,West,277,0.0,0.0,62,-99.99,,,0.00,VWS V14.01,2013-01-21 00:30:00,
2013-01-20 20:00:00,39.9,28.4,30.30,West,277,0.0,0.0,63,-99.99,,,0.00,VWS V14.01,2013-01-21 01:00:00,
2013-01-20 20:30:00,40.5,28.9,30.30,NW,308,0.0,3.1,63,-99.99,,,0.00,VWS V14.01,2013-01-21 01:30:00,
2013-01-20 21:00:00,39.4,25.9,30.30,NW,308,0.0,3.6,58,-99.99,,,0.00,VWS V14.01,2013-01-21 02:00:00,
2013-01-20 21:30:00,38.3,24.8,30.30,NW,308,0.0,3.6,58,-99.99,,,0.00,VWS V14.01,2013-01-21 02:30:00,
2013-01-20 22:00:00,37.9,23.7,30.30,NW,319,0.0,4.9,56,-99.99,,,0.00,VWS V14.01,2013-01-21 03:00:00,
2013-01-20 22:30:00,36.7,22.9,30.30,NNW,339,0.0,3.1,57,-99.99,,,0.00,VWS V14.01,2013-01-21 03:30:00,
2013-01-20 23:00:00,36.5,23.5,30.27,NNW,339,0.0,0.0,59,-99.99,,,0.00,VWS V14.01,2013-01-21 04:00:00,
2013-01-20 23:30:00,36.5,24.0,30.30,NNW,338,0.0,0.0,60,-99.99,,,0.00,VWS V14.01,2013-01-21 04:30:00,